timestamp,wind_dir_avg,wind_spd_avg,wind_spd_max_dir,wind_spd_gust,battery_voltage,lat,long
2023-07-15 00:04:00+00:00,240.0,6.11,247.0,8.34,12.49,47.59359,-54.27349
2023-07-15 00:14:00+00:00,234.0,5.27,235.0,6.05,12.41,47.59359,-54.27349
2023-07-15 00:24:00+00:00,232.0,5.23,235.0,7.05,12.41,47.59359,-54.27349
2023-07-15 00:34:00+00:00,244.0,4.45,238.0,5.1,12.41,47.59359,-54.27349
2023-07-15 00:44:00+00:00,228.0,4.91,233.0,5.82,12.41,47.59359,-54.27349
2023-07-15 00:54:00+00:00,230.0,5.62,242.0,7.85,12.41,47.59359,-54.27349
2023-07-15 01:04:00+00:00,231.0,5.33,237.0,7.3,12.41,47.59359,-54.27349
2023-07-15 01:14:00+00:00,245.0,3.98,241.0,4.55,12.41,47.59359,-54.27349
2023-07-15 01:24:00+00:00,232.0,3.19,231.0,3.74,12.41,47.59359,-54.27349
2023-07-15 01:34:00+00:00,252.0,4.4,252.0,4.62,12.41,47.59359,-54.27349
2023-07-15 01:44:00+00:00,253.0,3.86,259.0,4.65,12.41,47.59359,-54.27349
2023-07-15 01:54:00+00:00,240.0,8.54,247.0,11.15,12.41,47.59359,-54.27349
2023-07-15 02:04:00+00:00,245.0,10.66,248.0,12.16,12.41,47.59359,-54.27349
2023-07-15 02:14:01+00:00,244.0,9.46,251.0,11.06,12.41,47.59359,-54.27349
2023-07-15 02:24:01+00:00,244.0,11.82,245.0,12.85,12.41,47.59359,-54.27349
2023-07-15 02:34:01+00:00,245.0,11.74,243.0,13.16,12.41,47.59359,-54.27349
2023-07-15 02:44:01+00:00,246.0,11.17,247.0,13.97,12.41,47.59359,-54.27349
2023-07-15 02:54:01+00:00,245.0,10.71,244.0,12.07,12.41,47.59359,-54.27349
2023-07-15 03:04:01+00:00,249.0,10.35,250.0,11.78,12.41,47.59359,-54.27349
2023-07-15 03:14:00+00:00,249.0,11.17,249.0,11.96,12.41,47.59359,-54.27349
2023-07-15 03:24:00+00:00,242.0,10.02,244.0,12.09,12.41,47.59359,-54.27349
2023-07-15 03:34:00+00:00,248.0,11.63,246.0,12.61,12.41,47.59359,-54.27349
2023-07-15 03:44:00+00:00,244.0,11.14,240.0,12.87,12.41,47.59359,-54.27349
2023-07-15 03:54:00+00:00,243.0,12.11,242.0,13.31,12.41,47.59359,-54.27349
2023-07-15 04:04:00+00:00,245.0,10.62,243.0,12.24,12.41,47.59359,-54.27349
2023-07-15 04:14:00+00:00,247.0,10.24,250.0,11.9,12.41,47.59359,-54.27349
2023-07-15 04:24:00+00:00,246.0,11.18,247.0,11.8,12.41,47.59359,-54.27349
2023-07-15 04:34:00+00:00,248.0,11.11,246.0,12.27,12.41,47.59359,-54.27349
2023-07-15 04:44:00+00:00,241.0,11.54,240.0,13.3,12.41,47.59359,-54.27349
2023-07-15 04:54:00+00:00,240.0,10.23,248.0,12.35,12.41,47.59359,-54.27349
2023-07-15 05:04:00+00:00,242.0,11.9,242.0,13.09,12.41,47.59359,-54.27349
2023-07-15 05:14:00+00:00,242.0,12.09,242.0,13.2,12.33,47.59359,-54.27349
2023-07-15 05:24:00+00:00,239.0,12.2,237.0,13.48,12.33,47.59359,-54.27349
2023-07-15 05:34:00+00:00,237.0,11.37,238.0,13.62,12.33,47.59359,-54.27349
2023-07-15 05:44:00+00:00,238.0,11.95,235.0,13.84,12.33,47.59359,-54.27349
2023-07-15 05:54:00+00:00,241.0,12.13,240.0,13.34,12.33,47.59359,-54.27349
2023-07-15 06:04:00+00:00,239.0,12.57,233.0,13.76,12.33,47.59359,-54.27349
2023-07-15 06:14:00+00:00,240.0,12.6,237.0,13.59,12.33,47.59359,-54.27349
2023-07-15 06:24:00+00:00,239.0,12.38,237.0,13.41,12.33,47.59359,-54.27349
2023-07-15 06:34:00+00:00,231.0,8.16,241.0,11.09,12.33,47.59359,-54.27349
2023-07-15 06:44:00+00:00,234.0,10.89,238.0,12.14,12.33,47.59359,-54.27349
2023-07-15 06:54:00+00:00,232.0,9.91,241.0,12.57,12.33,47.59359,-54.27349
2023-07-15 07:04:00+00:00,231.0,10.7,231.0,12.13,12.33,47.59359,-54.27349
2023-07-15 07:14:01+00:00,225.0,10.23,229.0,12.34,12.25,47.59359,-54.27349
2023-07-15 07:24:01+00:00,231.0,10.0,235.0,11.92,12.25,47.59359,-54.27349
2023-07-15 07:34:01+00:00,223.0,9.01,232.0,11.9,12.25,47.59359,-54.27349
2023-07-15 07:44:01+00:00,224.0,10.38,229.0,12.18,12.25,47.59359,-54.27349
2023-07-15 07:54:01+00:00,223.0,10.29,224.0,11.72,12.25,47.59359,-54.27349
2023-07-15 08:04:01+00:00,220.0,9.05,228.0,11.13,12.25,47.59359,-54.27349
2023-07-15 08:14:00+00:00,208.0,8.06,224.0,10.03,12.25,47.59359,-54.27349
2023-07-15 08:24:00+00:00,205.0,7.56,223.0,9.57,12.25,47.59359,-54.27349
2023-07-15 08:34:00+00:00,218.0,7.5,232.0,10.48,12.25,47.59359,-54.27349
2023-07-15 08:44:00+00:00,211.0,6.84,233.0,10.78,12.25,47.59359,-54.27349
2023-07-15 08:54:00+00:00,205.0,6.73,208.0,7.85,12.25,47.59359,-54.27349
2023-07-15 09:04:00+00:00,200.0,6.61,205.0,7.58,12.25,47.59359,-54.27349
2023-07-15 09:14:01+00:00,197.0,7.48,210.0,8.5,12.25,47.59359,-54.27349
2023-07-15 09:24:01+00:00,188.0,7.26,186.0,8.44,12.25,47.59359,-54.27349
2023-07-15 09:34:01+00:00,188.0,7.7,191.0,8.74,12.25,47.59359,-54.27349
2023-07-15 09:44:01+00:00,201.0,7.86,214.0,9.71,12.25,47.59359,-54.27349
2023-07-15 09:54:01+00:00,233.0,10.57,237.0,12.52,12.25,47.59359,-54.27349
2023-07-15 10:04:01+00:00,231.0,11.41,233.0,12.63,12.25,47.59359,-54.27349
2023-07-15 10:14:01+00:00,234.0,11.22,239.0,12.45,13.13,47.59359,-54.27349
2023-07-15 10:24:01+00:00,228.0,10.97,227.0,12.85,13.13,47.59359,-54.27349
2023-07-15 10:34:01+00:00,229.0,11.48,232.0,12.94,13.13,47.59359,-54.27349
2023-07-15 10:44:01+00:00,225.0,10.3,227.0,12.12,13.13,47.59359,-54.27349
2023-07-15 10:54:01+00:00,221.0,10.96,225.0,12.49,13.13,47.59359,-54.27349
2023-07-15 11:04:01+00:00,219.0,9.47,222.0,11.22,13.13,47.59359,-54.27349
2023-07-15 11:14:01+00:00,224.0,10.56,239.0,13.61,13.44,47.59359,-54.27349
2023-07-15 11:24:01+00:00,223.0,9.28,235.0,11.33,13.44,47.59359,-54.27349
2023-07-15 11:34:01+00:00,224.0,10.31,229.0,11.76,13.44,47.59359,-54.27349
2023-07-15 11:44:01+00:00,223.0,10.42,229.0,11.6,13.44,47.59359,-54.27349
2023-07-15 11:54:01+00:00,226.0,9.79,229.0,11.12,13.44,47.59359,-54.27349
2023-07-15 12:04:01+00:00,226.0,10.73,227.0,11.98,13.44,47.59359,-54.27349
2023-07-15 12:14:00+00:00,224.0,10.07,228.0,12.17,13.13,47.59359,-54.27349
2023-07-15 12:24:00+00:00,228.0,12.42,230.0,13.35,13.13,47.59359,-54.27349
2023-07-15 12:34:00+00:00,233.0,11.98,232.0,12.93,13.13,47.59359,-54.27349
2023-07-15 12:44:00+00:00,234.0,11.35,235.0,12.65,13.13,47.59359,-54.27349
2023-07-15 12:54:00+00:00,232.0,11.18,233.0,12.78,13.13,47.59359,-54.27349
2023-07-15 13:04:00+00:00,225.0,9.65,224.0,11.33,13.13,47.59359,-54.27349
2023-07-15 13:14:01+00:00,229.0,11.11,232.0,12.04,13.76,47.59359,-54.27349
2023-07-15 13:24:01+00:00,229.0,10.63,231.0,11.98,13.76,47.59359,-54.27349
2023-07-15 13:34:01+00:00,230.0,10.35,232.0,11.84,13.76,47.59359,-54.27349
2023-07-15 13:44:01+00:00,220.0,10.13,223.0,11.65,13.76,47.59359,-54.27349
2023-07-15 13:54:01+00:00,213.0,8.28,228.0,10.34,13.76,47.59359,-54.27349
2023-07-15 14:04:01+00:00,217.0,9.29,225.0,11.07,13.76,47.59359,-54.27349
2023-07-15 14:14:00+00:00,223.0,8.91,230.0,10.53,13.84,47.59359,-54.27349
2023-07-15 14:24:00+00:00,226.0,9.81,231.0,11.13,13.84,47.59359,-54.27349
2023-07-15 14:34:00+00:00,228.0,10.13,231.0,11.49,13.84,47.59359,-54.27349
2023-07-15 14:44:00+00:00,226.0,10.49,237.0,13.61,13.84,47.59359,-54.27349
2023-07-15 14:54:00+00:00,225.0,8.35,232.0,10.73,13.84,47.59359,-54.27349
2023-07-15 15:04:00+00:00,227.0,10.7,230.0,11.66,13.84,47.59359,-54.27349
2023-07-15 15:14:00+00:00,223.0,9.9,225.0,11.38,14.32,47.59359,-54.27349
2023-07-15 15:24:00+00:00,219.0,9.63,218.0,11.11,14.32,47.59359,-54.27349
2023-07-15 15:34:00+00:00,220.0,9.76,222.0,11.08,14.32,47.59359,-54.27349
2023-07-15 15:44:00+00:00,220.0,10.27,218.0,11.69,14.32,47.59359,-54.27349
2023-07-15 15:54:00+00:00,221.0,9.45,227.0,10.92,14.32,47.59359,-54.27349
2023-07-15 16:04:00+00:00,217.0,8.79,226.0,10.64,14.32,47.59359,-54.27349
2023-07-15 16:14:00+00:00,219.0,9.84,229.0,11.28,13.76,47.59359,-54.27349
2023-07-15 16:24:00+00:00,218.0,9.15,223.0,10.63,13.76,47.59359,-54.27349
2023-07-15 16:34:00+00:00,213.0,8.46,217.0,9.36,13.76,47.59359,-54.27349
2023-07-15 16:44:00+00:00,217.0,9.4,225.0,10.63,13.76,47.59359,-54.27349
2023-07-15 16:54:00+00:00,219.0,9.1,225.0,10.34,13.76,47.59359,-54.27349
2023-07-15 17:04:00+00:00,209.0,8.29,217.0,9.55,13.76,47.59359,-54.27349
2023-07-15 17:14:00+00:00,208.0,8.85,221.0,10.34,13.84,47.59359,-54.27349
2023-07-15 17:24:00+00:00,217.0,9.31,221.0,10.32,13.84,47.59359,-54.27349
2023-07-15 17:34:00+00:00,217.0,9.33,223.0,10.41,13.84,47.59359,-54.27349
2023-07-15 17:44:00+00:00,217.0,9.72,220.0,11.12,13.84,47.59359,-54.27349
2023-07-15 17:54:00+00:00,214.0,8.77,223.0,10.71,13.84,47.59359,-54.27349
2023-07-15 18:04:00+00:00,216.0,8.91,228.0,10.96,13.84,47.59359,-54.27349
2023-07-15 18:14:00+00:00,221.0,9.08,227.0,10.31,13.68,47.59359,-54.27349
2023-07-15 18:24:00+00:00,222.0,9.66,229.0,11.12,13.68,47.59359,-54.27349
2023-07-15 18:34:00+00:00,218.0,8.75,229.0,10.8,13.68,47.59359,-54.27349
2023-07-15 18:44:00+00:00,205.0,8.36,216.0,9.77,13.68,47.59359,-54.27349
2023-07-15 18:54:00+00:00,208.0,7.48,222.0,8.9,13.68,47.59359,-54.27349
2023-07-15 19:04:00+00:00,219.0,8.9,229.0,11.2,13.68,47.59359,-54.27349
2023-07-15 19:14:00+00:00,225.0,8.83,239.0,13.17,13.68,47.59359,-54.27349
2023-07-15 19:24:00+00:00,234.0,10.75,234.0,11.6,13.68,47.59359,-54.27349
2023-07-15 19:34:00+00:00,214.0,7.8,233.0,9.83,13.68,47.59359,-54.27349
2023-07-15 19:44:00+00:00,204.0,7.76,217.0,9.54,13.68,47.59359,-54.27349
2023-07-15 19:54:00+00:00,214.0,8.84,224.0,10.32,13.68,47.59359,-54.27349
2023-07-15 20:04:00+00:00,216.0,9.36,226.0,11.0,13.68,47.59359,-54.27349
2023-07-15 20:14:00+00:00,216.0,9.42,225.0,10.86,13.6,47.59359,-54.27349
2023-07-15 20:24:00+00:00,218.0,10.2,223.0,11.58,13.6,47.59359,-54.27349
2023-07-15 20:34:00+00:00,220.0,10.24,224.0,11.85,13.6,47.59359,-54.27349
2023-07-15 20:44:00+00:00,220.0,8.72,227.0,10.56,13.6,47.59359,-54.27349
2023-07-15 20:54:00+00:00,217.0,8.86,224.0,10.22,13.6,47.59359,-54.27349
2023-07-15 21:04:00+00:00,215.0,7.9,220.0,9.65,13.6,47.59359,-54.27349
2023-07-15 21:14:00+00:00,215.0,7.71,227.0,10.49,13.68,47.59359,-54.27349
2023-07-15 21:24:00+00:00,217.0,8.89,224.0,10.54,13.68,47.59359,-54.27349
2023-07-15 21:34:00+00:00,222.0,9.25,228.0,11.07,13.68,47.59359,-54.27349
2023-07-15 21:44:00+00:00,212.0,7.38,217.0,8.52,13.68,47.59359,-54.27349
2023-07-15 21:54:00+00:00,213.0,7.99,219.0,9.3,13.68,47.59359,-54.27349
2023-07-15 22:04:00+00:00,220.0,9.02,223.0,10.38,13.68,47.59359,-54.27349
2023-07-15 22:14:00+00:00,228.0,8.62,234.0,10.04,13.29,47.59359,-54.27349
2023-07-15 22:24:00+00:00,212.0,7.34,226.0,9.59,13.29,47.59359,-54.27349
2023-07-15 22:34:00+00:00,207.0,6.8,222.0,8.08,13.29,47.59359,-54.27349
2023-07-15 22:44:00+00:00,201.0,6.23,196.0,8.05,13.29,47.59359,-54.27349
2023-07-15 22:54:00+00:00,208.0,6.94,220.0,7.83,13.29,47.59359,-54.27349
2023-07-15 23:04:00+00:00,204.0,6.16,204.0,6.89,13.29,47.59359,-54.27349
2023-07-15 23:14:00+00:00,214.0,7.34,230.0,9.68,12.73,47.59359,-54.27349
2023-07-15 23:24:00+00:00,225.0,8.11,234.0,10.39,12.73,47.59359,-54.27349
2023-07-15 23:34:00+00:00,225.0,7.36,235.0,9.97,12.73,47.59359,-54.27349
2023-07-15 23:44:00+00:00,224.0,5.74,243.0,8.87,12.73,47.59359,-54.27349
2023-07-15 23:54:00+00:00,233.0,7.62,243.0,10.62,12.73,47.59359,-54.27349
